Location: Peebles
(55.6412°N, 3.1714°W)
Time: 17:09:43
(UTC+01:00)

Cosmos 1934 Rocket - Pass Details

Date: 03 February 2022
Orbit: 938 x 999 km, 83.0° (Epoch: 25 May)

Event Time Altitude Azimuth Distance (km) Brightness Sun altitude
Rises 06:16:19 0° 173° (S) 3,679 7.2 -15.0°
Reaches altitude 10° 06:18:52 10° 170° (S) 2,727 6.6 -14.6°
Maximum altitude 06:24:57 57° 93° (E) 1,134 4.7 -13.8°
Drops below altitude 10° 06:30:59 10° 17° (NNE) 2,704 6.4 -12.9°
Sets 06:33:30 0° 14° (NNE) 3,645 7.0 -12.6°
